FALCON 9 DEB (44773 NORAD) Tracking and Keplerian Element Data

This shows tracking and keplerian element data for the satellite.

Feedback or suggestion? Click here.




ElementValue
Catalog44773
NameFALCON 9 DEB
Epoch Orbit473
Epoch Day345.17570577
Epoch Year2019
RAAN18.8459
Inclination53.0043
Eccentricity0.0012973
Argument of Perigee53.4543
Mean Anonmoly306.7679
Mean Motion16.02981294
Decay Rate0.00148078
L11 44773U 19074BN 19345.17570577 .00148078 20847-4 23950-3 0 9992
L22 44773 53.0043 18.8459 0012973 53.4543 306.7679 16.02981294 4737



Live tracking and technical data element details for FALCON 9 DEB (NORAD 44773). FALCON 9 DEB can be tracked NOW for your location showing map with azimuth and elevation plus other details from your city location.







IsCatalogInMostPopularTable: catalog: 44773, numindb: 205
Update: records affected: 1



GetName: 44773 FALCON 9 DEB

Hit Count: updated at: Sun, 11 Jun 2023 00:37:02 GMT